カタログに戻る

QIANFAN-87

運用中通信PO
NORAD 63173·PAYLOAD·🇨🇳 China

打ち上げ Mar 11, 2025 から Wenchang Space Launch Site

Loading…

次のパス (今後24時間)

TLE

最新Source: Space-Track

元期: Sep 14, 2026, 13:26 UTC

1 63173U 25046Q   26257.55977249  .00000011  00000-0 -19727-5 0  9991
2 63173  88.9650 291.2560 0013213  56.4937 303.7474 13.51031972 84728

AllMySatでQIANFAN-87をリアルタイム追跡

Download on the App Store